| time (UTC) | temp F | wind direction | speed MPH | gust MPH | rain 1hr in | rain 24hr in | rain mn in | humidity % | barometer mb |
| 20260507202928 | 59 | 273 | 0.0 | 0.0 | 0.00 | 0.00 | 0.00 | 81 | 1012.7 |
| 20260507195940 | 60 | 273 | 0.0 | 0.0 | 0.00 | 0.00 | 0.00 | 80 | 1012.5 |
| 20260507192914 | 61 | 271 | 0.0 | 4.0 | 0.00 | 0.00 | 0.00 | 79 | 1012.2 |
| 20260507185930 | 62 | 266 | 2.0 | 4.0 | 0.00 | 0.00 | 0.00 | 78 | 1012.1 |
| 20260507182915 | 62 | 288 | 2.0 | 5.0 | 0.00 | 0.00 | 0.00 | 77 | 1011.9 |
| 20260507175937 | 63 | 232 | 5.0 | 7.0 | 0.00 | 0.00 | 0.00 | 76 | 1012.1 |
| 20260507172926 | 63 | 210 | 5.0 | 9.0 | 0.00 | 0.00 | 0.00 | 75 | 1012.0 |
| 20260507165920 | 64 | 249 | 4.0 | 9.0 | 0.00 | 0.00 | 0.00 | 74 | 1011.9 |
| 20260507162933 | 65 | 224 | 5.0 | 10.0 | 0.00 | 0.00 | 0.00 | 73 | 1012.0 |
| 20260507155921 | 65 | 240 | 5.0 | 11.0 | 0.00 | 0.00 | 0.00 | 72 | 1012.2 |
| 20260507152937 | 65 | 225 | 4.0 | 11.0 | 0.00 | 0.00 | 0.00 | 72 | 1012.3 |
| 20260507145931 | 65 | 273 | 6.0 | 12.0 | 0.00 | 0.00 | 0.00 | 72 | 1012.5 |
| 20260507142921 | 65 | 236 | 7.0 | 12.0 | 0.00 | 0.00 | 0.00 | 72 | 1012.7 |
| 20260507135912 | 66 | 198 | 8.0 | 12.0 | 0.00 | 0.00 | 0.00 | 70 | 1012.8 |
| 20260507132927 | 66 | 229 | 7.0 | 14.0 | 0.00 | 0.00 | 0.00 | 70 | 1012.9 |
| 20260507125915 | 66 | 288 | 6.0 | 14.0 | 0.00 | 0.00 | 0.00 | 69 | 1013.2 |
| 20260507122927 | 67 | 210 | 7.0 | 15.0 | 0.00 | 0.00 | 0.00 | 66 | 1013.0 |
| 20260507115915 | 66 | 245 | 5.0 | 11.0 | 0.00 | 0.00 | 0.00 | 67 | 1013.0 |
| 20260507112911 | 66 | 225 | 6.0 | 12.0 | 0.00 | 0.00 | 0.00 | 65 | 1012.9 |
| 20260507105927 | 65 | 277 | 7.0 | 12.0 | 0.00 | 0.00 | 0.00 | 68 | 1012.8 |
| 20260507102912 | 65 | 254 | 4.0 | 10.0 | 0.00 | 0.00 | 0.00 | 67 | 1013.0 |
| 20260507095955 | 65 | 261 | 7.0 | 9.0 | 0.00 | 0.00 | 0.00 | 67 | 1013.2 |
| 20260507092925 | 64 | 270 | 6.0 | 10.0 | 0.00 | 0.00 | 0.00 | 68 | 1013.3 |
| 20260507085913 | 64 | 229 | 6.0 | 11.0 | 0.00 | 0.00 | 0.00 | 69 | 1013.1 |
| 20260507082927 | 63 | 246 | 6.0 | 9.0 | 0.00 | 0.00 | 0.00 | 70 | 1012.9 |
| 20260507075943 | 62 | 232 | 5.0 | 8.0 | 0.00 | 0.00 | 0.00 | 71 | 1012.8 |
| 20260507072937 | 61 | 216 | 5.0 | 7.0 | 0.00 | 0.00 | 0.00 | 80 | 1013.0 |
| 20260507065924 | 60 | 220 | 2.0 | 6.0 | 0.00 | 0.00 | 0.00 | 87 | 1012.8 |
| 20260507062939 | 59 | 256 | 1.0 | 4.0 | 0.00 | 0.00 | 0.00 | 89 | 1012.5 |
| 20260507055930 | 58 | 291 | 0.0 | 0.0 | 0.00 | 0.00 | 0.00 | 90 | 1012.6 |
| 20260507052925 | 55 | 291 | 0.0 | 0.0 | 0.00 | 0.00 | 0.00 | 89 | 1012.4 |
| 20260507045933 | 53 | 291 | 0.0 | 0.0 | 0.00 | 0.00 | 0.00 | 88 | 1012.1 |
| 20260507042931 | 54 | 291 | 0.0 | 0.0 | 0.00 | 0.04 | 0.00 | 87 | 1011.9 |
| 20260507035924 | 55 | 291 | 0.0 | 0.0 | 0.00 | 0.04 | 0.00 | 87 | 1011.9 |
| 20260507032920 | 56 | 291 | 0.0 | 0.0 | 0.00 | 0.04 | 0.00 | 86 | 1011.8 |
| 20260507025925 | 57 | 291 | 0.0 | 0.0 | 0.00 | 0.04 | 0.00 | 85 | 1011.9 |
| 20260507022915 | 58 | 291 | 0.0 | 0.0 | 0.00 | 0.04 | 0.01 | 85 | 1011.9 |
| 20260507015926 | 59 | 291 | 2.0 | 3.0 | 0.00 | 0.04 | 0.01 | 84 | 1011.9 |
| 20260507012924 | 59 | 294 | 1.0 | 3.0 | 0.00 | 0.04 | 0.01 | 84 | 1012.0 |
| 20260507005917 | 60 | 325 | 3.0 | 5.0 | 0.00 | 0.04 | 0.01 | 84 | 1012.1 |
| 20260507002926 | 60 | 231 | 4.0 | 8.0 | 0.00 | 1.65 | 0.01 | 83 | 1012.3 |
| 20260506235913 | 61 | 231 | 7.0 | 13.0 | 0.00 | 1.65 | 0.01 | 83 | 1012.5 |
| 20260506232928 | 61 | 255 | 7.0 | 14.0 | 0.00 | 1.69 | 0.01 | 82 | 1012.7 |
| 20260506225939 | 61 | 235 | 6.0 | 17.0 | 0.00 | 1.69 | 0.01 | 82 | 1012.9 |
| 20260506222929 | 61 | 287 | 8.0 | 15.0 | 0.00 | 1.69 | 0.01 | 81 | 1012.9 |
| 20260506215918 | 60 | 241 | 7.0 | 13.0 | 0.00 | 1.69 | 0.01 | 80 | 1012.8 |
| 20260506212913 | 59 | 322 | 3.0 | 5.0 | 0.00 | 1.69 | 0.01 | 78 | 1012.7 |
| 20260506205925 | 59 | 303 | 2.0 | 4.0 | 0.00 | 1.69 | 0.01 | 77 | 1012.7 |